SCP
0 0 0 0 0 0 0 0 0 0 0 0 0 0 0 0 0 0 0 0 0 0 0 0 0 0 0 0 0 0 0 0 0 0 0 0 0 0 0 0 0 0 0
0 0 0 0 0 0 0 0 0 0 0 0 0 0 0 0 0 0 0 0 0 0 0 0 0 0 0 0 0 0 0 0 0 0 0 0 0 0 0 0 0 0 0
0 0 0 0 0 0 0 0 0 0 0 0 0 0 0 0 0 0 0 0 0 0 0 0 0 0 0 0 0 0 0 0 0 0 0 0 0 0 0 0 0 0 0
0 0 0 0 0 0 0 0 0 0 0 0 0 0 0 0 0 0 0 0 0 0 0 0 0 0 0 0 0 0 0 0 0 0 0 0 0 0 0 0 0 0 0
0 0 0 0 0 0 0 0 0 0 0 0 0 0 0 0 0 0 0 0 0 0 0 0 0 0 0 0 0 0 0 0 0 0 0 0 0 0 0 0 0 0 0
0 0 0 0 0 0 0 0 0 0 0 0 0 0 0 0 0 0 0 0 0 0 0 0 0 0 0 0 0 0 0 0 0 0 0 0 0 0 0 0 0 0 0
0 0 0 0 0 0 0 0 0 0 0 0 0 0 0 0 0 0 0 0 0 0 0 0 0 0 0 0 0 0 0 0 0 0 0 0 0 0 0 0 0 0 0
0 0 0 0 0 0 0 0 0 0 0 0 0 0 0 0 0 0 0 0 0 0 0 0 0 0 0 0 0 0 0 0 0 0 0 0 0 0 0 0 0 0 0
0 0 0 0 0 0 0 0 0 0 0 0 0 0 0 0 0 0 0 0 0 0 0 0 0 0 0 0 0 0 0 0 0 0 0 0 0 0 0 0 0 0 0
0 0 0 0 0 0 0 0 0 0 0 0 0 0 0 0 0 0 0 0 0 0 0 0 0 0 0 0 0 0 0 0 0 0 0 0 0 0 0 0 0 0 0
0 0 0 0 0 0 0 0 0 0 0 0 0 0 0 0 0 0 0 0 0 0 0 0 0 0 0 0 0 0 0 0 0 0 0 0 0 0 0 0 0 0 0
0 0 0 0 0 0 0 0 0 0 0 0 0 0 0 0 0 0 0 0 0 0 0 0 0 0 0 0 0 0 0 0 0 0 0 0 0 0 0 0 0 0 0
0 0 0 0 0 0 0 0 0 0 0 0 0 0 0 0 0 0 0 0 0 0 0 0 0 0 0 0 0 0 0 0 0 0 0 0 0 0 0 0 0 0 0
0 0 0 0 0 0 0 0 0 0 0 0 0 0 0 0 0 0 0 0 0 0 0 0 0 0 0 0 0 0 0 0 0 0 0 0 0 0 0 0 0 0 0
0 0 0 0 0 0 0 0 0 0 0 0 0 0 0 0 0 0 0 0 0 0 0 0 0 0 0 0 0 0 0 0 0 0 0 0 0 0 0 0 0 0 0
0 0 0 0 0 0 0 0 0 0 0 0 0 0 0 0 0 0 0 0 0 0 0 0 0 0 0 0 0 0 0 0 0 0 0 0 0 0 0 0 0 0 0
0 0 0 0 0 0 0 0 0 0 0 0 0 0 0 0 0 0 0 0 0 0 0 0 0 0 0 0 0 0 0 0 0 0 0 0 0 0 0 0 0 0 0
0 0 0 0 0 0 0 0 0 0 0 0 0 0 0 0 0 0 0 0 0 0 0 0 0 0 0 0 0 0 0 0 0 0 0 0 0 0 0 0 0 0 0
0 0 0 0 0 0 0 0 0 0 0 0 0 0 0 0 0 0 0 0 0 0 0 0 0 0 0 0 0 0 0 0 0 0 0 0 0 0 0 0 0 0 0
0 0 0 0 0 0 0 0 0 0 0 0 0 0 0 0 0 0 0 0 0 0 0 0 0 0 0 0 0 0 0 0 0 0 0 0 0 0 0 0 0 0 0
0 0 0 0 0 0 0 0 0 0 0 0 0 0 0 0 0 0 0 0 0 0 0 0 0 0 0 0 0 0 0 0 0 0 0 0 0 0 0 0 0 0 0
0 0 0 0 0 0 0 0 0 0 0 0 0 0 0 0 0 0 0 0 0 0 0 0 0 0 0 0 0 0 0 0 0 0 0 0 0 0 0 0 0 0 0
0 0 0 0 0 0 0 0 0 0 0 0 0 0 0 -0 0 0 0 0 0 0 0 0 0 0 0 0 0 0 0 0 0 0 0 0 0 0 0 0 0 0 0
0 0 0 0 0 0 0 0 0 0 0 0 0 0 0 -0 0 0 0 0 0 0 0 0 0 0 0 0 0 0 0 0 0 0 0 0 0 0 0 0 0 0 0
0 0 0 0 0 0 0 0 0 0 0 0 0 0 0 0 0 0 0 0 0 0 0 0 0 0 0 0 0 0 0 0 0 0 0 0 0 0 0 0 0 0 0
0 0 0 0 0 0 0 0 0 0 0 0 0 0 0 0 0 0 0 0 0 0 0 0 0 0 0 0 0 0 0 0 0 0 0 0 0 0 0 0 0 0 0
Wind_Speed
1 1 3 5 6 7 7 8 8 8 8 9 8 8 8 8 7 7 7 7 7 7 7 7 8 8 8 8 8 9 9 10 9 9 9 9 10 11 11 10 9 6 11
1 1 4 6 7 7 7 7 8 8 8 8 8 8 8 8 8 7 6 6 6 6 7 7 7 8 8 8 8 8 9 9 9 8 8 7 8 9 10 9 9 6 10
3 2 4 6 7 7 7 7 7 8 8 8 8 8 7 7 8 8 7 6 5 5 6 6 7 6 7 7 7 8 8 8 8 7 6 3 5 8 9 9 8 9 9
4 3 4 6 7 7 7 8 8 8 8 8 8 8 7 7 8 7 7 6 5 5 5 5 5 6 6 6 6 6 7 7 7 6 3 2 2 7 8 8 8 8 9
4 3 4 7 7 8 8 8 8 8 8 8 7 7 7 7 8 7 7 7 6 5 5 5 4 5 5 6 6 6 6 6 6 4 2 2 1 6 7 7 7 7 8
4 4 4 7 8 8 8 8 8 8 7 7 7 7 7 7 7 7 7 7 6 6 5 5 4 4 4 5 5 5 5 5 4 2 2 2 2 6 7 7 7 7 7
4 4 4 8 8 8 8 9 9 8 8 7 7 7 7 6 6 6 6 6 5 5 5 5 4 4 4 4 4 4 4 4 3 2 2 1 2 6 7 7 7 7 7
5 4 4 7 8 8 8 8 8 8 8 7 7 7 7 7 6 6 5 5 5 5 4 4 4 4 4 4 4 3 3 3 3 2 1 1 4 6 6 6 6 6 6
5 5 4 4 5 7 8 8 8 7 7 7 7 7 7 7 6 5 5 5 5 4 4 4 4 3 3 3 3 3 3 3 2 1 1 1 4 5 5 5 5 5 5
5 5 4 5 4 3 4 7 7 7 8 8 8 8 8 7 6 6 5 5 4 4 4 4 4 4 3 3 2 3 3 2 1 1 0 1 3 5 5 5 5 4 5
5 4 4 4 4 3 3 5 5 6 7 7 6 8 7 4 4 4 5 5 5 4 4 4 5 5 4 3 3 2 2 1 0 0 0 0 4 5 5 5 4 4 4
3 3 3 3 3 3 3 3 2 3 4 4 4 4 3 3 3 4 6 6 5 5 5 5 5 5 4 2 2 2 0 0 0 0 0 1 4 5 5 5 5 5 5
2 2 2 2 2 2 2 2 2 2 2 3 4 4 3 3 3 3 3 4 4 4 3 4 3 2 2 2 1 1 0 0 0 1 0 1 3 5 5 5 5 5 5
2 2 2 2 2 2 2 2 2 2 2 2 3 3 3 2 3 3 2 2 2 2 2 2 1 2 2 2 2 1 1 0 0 1 1 1 3 4 4 5 5 5 5
2 2 2 2 2 2 2 2 2 2 2 2 2 2 3 2 2 2 2 2 2 2 2 2 1 2 2 2 2 1 1 0 0 0 1 1 1 3 4 4 4 4 4
2 2 2 3 3 3 3 2 2 2 2 2 2 2 2 2 1 2 2 2 2 2 2 1 1 1 1 1 1 2 2 1 0 0 1 1 0 1 2 3 3 3 4
2 2 2 3 3 3 3 3 2 2 2 2 2 2 2 2 2 2 1 2 2 2 2 1 1 1 1 1 1 2 2 2 1 1 1 0 1 1 1 1 2 2 3
3 3 3 3 3 3 3 3 2 2 2 2 2 2 3 3 2 1 1 2 2 2 1 1 1 2 2 2 2 2 2 2 1 1 0 0 0 0 1 0 1 2 2
2 2 3 3 3 3 3 3 2 2 3 2 2 2 3 3 3 2 1 2 2 1 1 1 1 1 1 2 2 2 2 1 1 1 0 0 0 0 0 1 1 2 2
2 2 3 3 3 2 2 2 2 3 2 2 2 2 4 3 3 3 2 2 2 2 1 1 1 1 1 1 2 2 2 2 1 1 1 1 0 0 0 1 0 2 3
3 3 3 3 2 2 1 1 1 2 2 2 2 3 3 3 3 3 2 2 2 1 1 1 0 1 1 1 1 2 3 2 1 1 1 1 1 1 1 0 0 0 1
2 2 2 2 2 2 1 1 1 1 1 1 2 3 3 3 3 3 2 2 2 1 1 1 1 0 1 1 1 0 1 2 2 2 1 1 1 1 1 0 0 0 0
1 1 1 1 2 2 2 1 2 2 2 2 3 2 3 3 3 3 3 2 2 1 0 0 0 1 0 1 1 1 1 1 1 2 2 1 2 1 1 1 1 0 0
0 0 1 1 1 1 1 1 1 1 1 2 2 2 3 2 2 2 2 2 2 1 0 0 0 0 1 1 1 1 1 1 1 1 2 2 2 2 2 1 1 1 1
0 0 1 1 1 1 1 1 1 1 1 1 2 2 2 3 3 2 2 2 2 1 1 0 1 0 0 0 1 1 1 1 0 1 1 2 2 2 2 1 1 1 2
1 1 1 1 1 1 1 1 1 1 1 2 2 2 2 2 2 2 2 2 2 2 1 1 0 1 1 1 1 0 0 1 0 1 1 1 2 2 2 1 1 1 1
Wind_Direction
284 297 78 74 72 70 66 62 62 63 62 61 60 61 63 66 71 73 74 76 80 82 85 87 95 95 92 90 93 94 93 91 91 92 94 97 100 100 99 98 94 90 94
159 101 79 75 73 71 70 67 65 63 63 62 60 62 64 63 65 68 73 75 77 80 82 84 89 95 94 92 94 93 96 97 90 83 81 90 99 104 104 104 103 101 99
96 72 77 73 72 67 65 68 68 66 64 62 60 60 64 65 64 62 67 73 76 78 81 84 86 91 94 95 97 95 97 99 95 84 75 70 93 103 107 108 108 106 105
96 71 73 73 74 68 66 67 65 64 62 62 61 60 61 62 63 62 63 65 70 76 79 81 82 88 93 97 98 98 97 99 94 88 80 72 91 107 110 108 106 107 107
82 62 69 70 72 71 69 65 61 60 59 61 63 63 60 59 58 56 56 57 58 61 70 80 84 86 93 99 101 102 97 94 87 83 82 90 101 113 113 113 110 109 110
75 57 65 69 70 68 67 64 58 55 57 59 60 62 61 58 57 54 51 50 53 56 59 63 69 82 87 99 103 107 103 91 79 76 80 106 117 119 117 114 113 111 115
82 64 62 64 67 64 64 63 58 54 54 55 56 58 59 59 54 54 53 50 53 56 56 55 57 64 78 91 102 108 102 91 82 82 86 119 127 123 122 122 121 117 116
90 73 65 63 64 62 60 59 56 54 51 50 52 53 53 52 52 53 53 51 55 59 58 56 55 56 67 85 96 98 87 82 79 81 99 136 140 132 127 126 129 127 125
79 70 54 52 55 57 54 55 55 52 50 47 45 46 46 46 44 45 47 46 52 54 55 54 51 58 58 73 86 81 78 76 77 71 116 150 152 146 138 137 133 132 133
65 61 52 44 41 43 50 50 52 50 48 45 40 39 36 35 34 34 33 36 43 49 48 48 46 49 48 50 63 72 68 65 63 44 84 158 160 156 153 150 145 142 141
55 49 53 51 43 38 52 48 45 47 42 39 36 33 28 18 15 17 19 28 37 41 42 42 38 31 29 38 44 51 51 59 128 346 225 148 175 170 166 162 158 154 153
52 40 46 52 44 42 47 53 40 39 34 29 27 23 18 15 12 16 16 20 21 22 27 32 26 23 23 10 17 30 36 43 195 250 229 190 193 182 176 168 163 162 158
86 55 43 51 45 48 46 52 44 34 32 27 26 18 21 18 13 11 7 4 3 9 8 14 14 9 15 10 2 7 325 287 294 283 275 184 193 190 189 177 166 173 170
72 48 41 50 49 50 57 56 56 44 36 30 16 19 28 20 14 5 2 357 358 350 353 359 8 8 14 13 16 0 342 332 287 289 313 158 192 194 198 189 180 179 182
68 41 29 43 45 45 57 53 55 47 42 23 18 16 31 30 8 358 350 354 351 348 347 347 2 13 10 3 2 352 331 309 269 246 317 28 215 210 204 197 190 187 185
64 49 42 46 43 48 48 50 54 45 34 31 23 9 21 30 11 356 353 350 342 338 336 340 354 4 355 358 354 338 323 305 251 261 276 316 301 230 215 203 198 196 197
74 57 52 58 47 49 43 41 46 39 32 29 18 12 15 18 14 5 350 348 332 330 340 4 13 22 14 10 356 334 323 312 276 245 256 278 293 314 261 217 219 227 220
65 54 43 45 42 41 40 36 38 35 31 21 14 12 17 15 11 16 6 346 332 339 359 7 27 30 9 3 347 333 326 327 314 273 233 255 286 303 293 264 261 263 251
74 60 47 43 46 41 39 33 33 38 36 16 15 16 11 15 15 14 11 347 342 352 9 17 24 31 15 358 349 340 334 333 313 324 19 73 126 138 187 39 17 342 295
75 61 48 40 38 44 48 39 28 29 25 13 6 13 9 6 16 14 8 3 2 6 13 27 36 26 11 355 4 354 338 328 340 349 341 4 35 112 114 95 17 337 329
61 56 48 41 25 34 34 26 21 3 354 354 355 10 11 7 9 18 9 7 3 8 2 12 51 49 10 12 30 356 340 346 11 1 18 31 22 23 66 107 119 350 326
65 49 48 44 33 38 24 346 335 319 318 332 348 1 5 8 6 9 7 356 351 4 18 21 31 53 345 10 64 359 337 343 358 359 14 48 20 8 18 28 139 156 347
50 36 31 18 27 27 30 27 16 17 2 8 360 352 350 4 7 359 348 344 345 353 299 331 35 103 252 330 20 161 178 227 310 338 3 20 21 20 355 0 64 137 113
287 343 26 21 22 14 29 52 48 27 356 323 315 323 331 350 351 352 347 341 338 338 321 274 1 227 164 281 323 346 246 188 194 327 333 355 11 12 350 10 41 32 38
283 348 352 25 16 12 16 40 67 11 330 325 331 333 332 339 337 339 341 333 326 321 304 321 343 349 196 224 258 305 345 340 349 170 278 323 348 349 347 339 46 49 38
19 8 10 30 352 359 7 11 28 0 338 345 339 330 322 320 321 329 334 332 322 313 294 262 249 239 268 284 274 262 178 188 227 182 225 283 301 318 334 341 31 60 45